Regional Weather Roundup
Issued by NWS Boston, MA

Home | Current Version | Previous Version | Text Only | Print | Product List | Glossary On
Versions: 1 2 3 4 5 6 7 8 9 10 11 12 13 14 15 16 17 18 19 20 21 22 23 24 25 26 27 28 29 30 31 32 33 34 35 36 37 38 39 40 41 42 43 44 45 46 47 48 49 50
000
ASUS41 KBOX 271310
RWRBOX

REGIONAL WEATHER ROUNDUP
NATIONAL WEATHER SERVICE TAUNTON MA
800 AM EST TUE JAN 27 2015

NOTE:  "FAIR" INDICATES FEW OR NO CLOUDS BELOW 12,000 FEET WITH NO
SIGNIFICANT WEATHER AND/OR OBSTRUCTIONS TO VISIBILITY.  THE FOLLOWING
OBSERVATION LOCATIONS DO NOT REPORT PRESENT WEATHER...PROVINCETOWN...
SMITHFIELD...BLOCK ISLAND...KEENE...AND OXFORD.

MAZALL-271400-
EASTERN MASSACHUSETTS

CITY           SKY/WX    TMP DP  RH WIND       PRES   REMARKS
BOSTON         HVY SNOW  15  12  88 N24G36    29.58F VSB 1/8 WCI  -4
BEVERLY        HAZE      15  10  80 N17G38    29.58F VSB 1/4 WCI  -1
LAWRENCE       FOG       14  11  87 MISG      29.63F VSB 1/2
BEDFORD        FOG       15  12  88 MISG      29.58F VSB 1/4
BLUE HILL        N/A     13  10  88 MISG      29.49F
NORWOOD        FOG       15  12  88 MISG      29.57F VSB 1/4
MARSHFIELD     SNOW      27  23  86 N21G43    29.50S VSB<1/4 WCI  13
PLYMOUTH       CLOUDY    22  19  89 N32G54    29.44S FOG     WCI   3
TAUNTON        HAZE      17  12  80 N21G49    29.48R VSB 1/2 WCI   0
NEW BEDFORD    CLOUDY    17  14  88 N14G32    29.42F WCI   3
$$

MAZALL-271400-
CAPE COD AND THE ISLANDS

CITY           SKY/WX    TMP DP  RH WIND       PRES   REMARKS
FALMOUTH       SNOW      25  23  93 N24G48    29.34S VSB<1/4 WCI   9
HYANNIS        HVY SNOW  26  25  96 NE33G58   29.25F VSB 1/4 WCI   9
CHATHAM        SNOW      30  30 100 N20G39    29.27F VSB 1/4 WCI  17
PROVINCETOWN   CLOUDY    27  25  93 N44G60    29.41F VSB<1/4 WCI   8
NANTUCKET      HVY SNOW  32  28  85 N49G60    29.20S WCI  14
MARTHAS VNYRD  FOG       24  21  88 N37G58    29.32R VSB 1/4 WCI   5
$$

MAZALL-271400-
CENTRAL AND WESTERN MASSACHUSETTS

CITY           SKY/WX    TMP DP  RH WIND       PRES   REMARKS
WORCESTER      FOG       13  11  92 NE23G54   29.51F VSB 1/4 WCI  -6
FITCHBURG      HAZE      16  11  80 N20G35    29.63F VSB 1/4 WCI  -1
ORANGE         HVY SNOW  15  11  83 N15G24    29.66S VSB 1/4 WCI   0
SPRINGFIELD    SNOW      15  11  83 N20G33    29.62F VSB 1/2 WCI  -2
WESTFIELD      SNOW      17  12  80 N21G29    29.64F VSB 1/2 WCI   0
NORTH ADAMS    SNOW      10   5  80 W10G20    29.75R VSB 1/2 WCI  -4
PITTSFIELD     LGT SNOW  14  10  84 NW8       29.66R VSB 1   WCI   3
$$

RIZALL-271400-
RHODE ISLAND

CITY           SKY/WX    TMP DP  RH WIND       PRES   REMARKS
PROVIDENCE     HVY SNOW  17  13  84 N32G43    29.52F VSB 1/4 WCI  -3
NEWPORT        CLOUDY    17  12  80 N31G43    29.46S HAZE    WCI  -3
BLOCK ISLAND     N/A     21  16  79 NE30G47   29.40F VSB 1/2 WCI   3
SMITHFIELD     CLOUDY    16   7  67 N22G37    29.50S VSB 1/4 WCI  -2
WESTERLY       FOG       19  16  88 N17G31    29.47F VSB 1/4 WCI   4
$$

CTZALL-271400-
CONNECTICUT

CITY           SKY/WX    TMP DP  RH WIND       PRES   REMARKS
BRADLEY INTL   SNOW      17  12  80 N22G31    29.62S VSB 1/8 WCI   0
HARTFORD       SNOW      17  13  84 N15G29    29.63R VSB 1/4 WCI   2
BRIDGEPORT     FOG       22  19  89 NW16G26   29.61R VSB 1   WCI   8
DANBURY        LGT SNOW  17  10  74 NW9       29.66R WCI   6
GROTON         FOG       17  16  95 MISG      29.50R VSB 1/4
NEW HAVEN      LGT SNOW  20  16  84 N20G38    29.58R VSB 3/4 WCI   4
CHESTER        HVY SNOW  18  14  86 N20G33    29.54R VSB<1/4 WCI   1
MERIDEN        HAZE      19  14  81 N20G29    29.61R VSB 3/4 WCI   3
WILLIMANTIC    FOG       19  15  84 MISG      29.55F VSB<1/4
OXFORD         CLOUDY    19  10  68 N21       29.58S VSB 3/4 WCI   3
$$

MEZ002-015-021-024-NHZ003-005-008-011-012-014-VTZ005-008-271400-
NORTHERN NEW ENGLAND

CITY           SKY/WX    TMP DP  RH WIND       PRES   REMARKS
PORTLAND ME    HVY SNOW  12   7  80 N30G39    29.70F VSB 1/4 WCI -10
BANGOR ME      HVY SNOW   7   3  84 N28G38    29.83F VSB 1/4 WCI -16
CONCORD NH     FOG       15  11  83 N13G22    29.71F VSB 1/2 WCI   1
MANCHESTER NH  HVY SNOW  14  11  87 N18G30    29.66F VSB 1/8 WCI  -3
NASHUA NH      HVY SNOW  15  12  88 N16G26    29.66F WCI  -1
PORTSMOUTH NH  HVY SNOW  13   9  83 N23G38    29.63F VSB 1/8 WCI  -6
JAFFREY NH     HVY SNOW  14  10  84 N10G22    29.62F VSB 1/4 WCI   1
KEENE NH       CLOUDY    14   9  79 N17       29.69F VSB 3/4 WCI  -3
BURLINGTON VT  CLOUDY     9  -3  58 N14       29.95R WCI  -7
MT. WASHINGTON SNOW       5   5 100 NE79G87     N/A  VSB 1/16WCI -29
$$

NYZ052-076-271400-
EASTERN NEW YORK

CITY           SKY/WX    TMP DP  RH WIND       PRES   REMARKS
ALBANY         FLURRIES  13   1  59 N14       29.84R WCI  -2
NEW YORK CITY  CLOUDY    22  14  71 N18G32    29.67R WCI   7
$$

ANZALL-271400-
MARINE OBSERVATIONS

STATION/POSITION TIME  TEMP    WIND        PRES    VSBY  WAVE
                       AIR SEA DIR/SP/G                  HT/PER
                 (UTC) (F)     (DEG/KT/KT) (MB)    (MI)  (FT/S)
BOSTON BUOY      1250   24 41   10/ 39/ 51  997.7F        24/11
BUZZARDS BAY     1200          350/ 40/ 43  995.3R
NANTUCKET SOUND  NOT AVBL
MASS BAY-STELLWA 1204   25 41  360/ 43/ 58   N/A    1 7/8
ISLE OF SHOALS   1300   16      10/ 50/ 56 1000.5F
S OF BLOCK IS    1208      43                N/A          16/ 7
$$

......................KEY.........................
  SKY/WX - SKY CONDITION/PRESENT WEATHER
  TMP    - TEMPERATURE IN FAHRENHEIT
  DWPT   - DEWPOINT IN FAHRENHEIT
  RH     - RELATIVE HUMIDITY IN PERCENT
  WIND   - DIRECTION AND SPEED IN MPH
  PRES   - MEAN SEA LEVEL PRESSURE IN INCHES OF HG
  WCI    - WIND CHILL INDEX
  VSB    - VISIBILITY IN MILES
  HX     - HEAT INDEX
  TC     - TEMPERATURE IN CELSIUS
  VRB    - VARIABLE WIND DIRECTION
  N/A    - NOT AVAILABLE


USA.gov is the U.S. government's official web portal to all federal, state and local government web resources and services.